{"data":{"norad_id":69746,"epoch":"2026-09-19T19:16:19.692480Z","epoch_age_seconds":77973,"freshness":"FRESH","line1":"1 69746U 26150H   26262.80300570  .00013967  00000+0  43406-3 0  9992","line2":"2 69746  97.2854 101.8104 0002137  95.5387 264.6099 15.33451360 13634","mean_motion":15.3345136,"eccentricity":0.0002137,"inclination_deg":97.2854,"raan_deg":101.8104,"arg_perigee_deg":95.5387,"mean_anomaly_deg":264.6099,"bstar":0.00043406,"rev_number":1363,"period_min":93.905815180209,"perigee_km":464.0617612487,"apogee_km":466.98674206765,"semimajor_km":6843.6612516582,"source":"CELESTRAK","updated_at":"2026-09-20T09:00:44.287371Z"}}